Location: T�chigga el Be�da
(16.4766°N, 9.3887°W)
Time: 14:26:40
(UTC+00:00)

CZ-4 R/B - Pass Details

Date: 27 February 2020
Orbit: 531 x 599 km, 97.8° (Epoch: 05 April)

Event Time Altitude Azimuth Distance (km) Brightness Sun altitude
Rises 19:07:40 0° 162° (SSE) 2,832 4.8 -6.5°
Reaches altitude 10° 19:09:51 10° 159° (SSE) 1,931 4.0 -7.0°
Maximum altitude 19:14:00 64° 78° (ENE) 659 1.5 -8.0°
Drops below altitude 10° 19:18:08 10° 356° (N) 1,919 4.1 -9.0°
Sets 19:20:18 0° 354° (N) 2,813 5.0 -9.5°
